Hourly Data Report for July 17, 2021

FISHER BRANCH (AUT)
MANITOBA
Current Station Operator: ECCC - MSC

51°05'00.100" N
97°33'16.200" W
253.00 m
50309J6
71442
WSZ

Download Data

Hourly Data (July 2021)
Hourly Data Report for July 17, 2021
TIME
LST
Temp Definition
°C
Dew Point Definition
°C
Rel Hum Definition
%
Precip. Amount Definition
mm

Wind Dir Definition
10's deg

Wind Spd Definition
km/h
Visibility Definition
km
Stn Press Definition
kPa
Hmdx Definition


Wind Chill Definition


Weather Definition


00:00 21.8 15.4 67 0.0 19 9   98.39 26   LegendNANA
01:00 21.4 15.6 70 0.0 19 9   98.42 26   LegendNANA
02:00 21.0 15.4 70 0.0 20 9   98.46 25   LegendNANA
03:00 20.3 15.2 72 0.0 20 8   98.52     LegendNANA
04:00 19.2 15.2 77 0.0 19 8   98.57     LegendNANA
05:00 19.0 15.3 79 0.0 19 7   98.62     LegendNANA
06:00 20.8 15.6 72 0.0 18 11   98.67 25   LegendNANA
07:00 22.6 16.3 67 0.0 19 11   98.72 27   LegendNANA
08:00 24.8 16.9 61 0.0 19 13   98.74 30   LegendNANA
09:00 27.1 17.0 54 0.0 19 11   98.77 32   LegendNANA
10:00 28.7 15.7 45 0.0 19 12   98.79 33   LegendNANA
11:00 30.7 15.5 40 0.0 20 12   98.77 35   LegendNANA
12:00 31.2 14.3 36 0.0 18 10   98.77 35   LegendNANA
13:00 32.4 13.5 32 0.0 21 9   98.76 35   LegendNANA
14:00 32.9 13.6 31 0.0 17 10   98.78 36   LegendNANA
15:00 33.1 13.4 30 0.0 20 15   98.74 36   LegendNANA
16:00 33.4 15.3 34 0.0 22 8   98.73 38   LegendNANA
17:00 32.8 14.1 32 0.0 18 13   98.73 36   LegendNANA
18:00 31.6 15.5 38 0.0 19 13   98.77 36   LegendNANA
19:00 29.9 15.1 41 0.0 20 12   98.82 34   LegendNANA
20:00 27.2 15.1 48 0.0 18 9   98.83 31   LegendNANA
21:00 24.9 13.2 48 0.0 15 10   98.85 28   LegendNANA
22:00 23.1 12.0 50 0.0 17 8   98.91 25   LegendNANA
23:00 22.0 13.0 57 0.0 15 10   98.92 25   LegendNANA

Notes on Data Quality.

Legend

  • E = Estimated
  • M = Missing
  • NA = Not Available*
  • [empty] = Indicates an unobserved value
Date modified: